Weather in Petaling Jaya

Malaysia     3°01′35″N   101°37′18″E
temp.,
°C
wind,
m/s
gust,
m/s
humid.,
%
clouds,
%
prec.,
mm/h
press.,
hPa
HPBL,
m
4 march, thu
thu423:00+25n128381 0.0 101254
02:00+26nne128262 0.0 101254
05:00+24ese118783 0.0 101042
08:00+24ese128342 0.0 101272
11:00+31e225525 0.0 1013918
14:00+35ese234222 0.0 10101884
17:00+33ssw134899 0.0 10071360
20:00+28se247499 0.8 1009155
5 march, fri
fri523:00+26e2679100 0.3 1011173
02:00+25ese2582100 0.3 1011159
05:00+24ese248812 0.0 1010114
08:00+24ese238629 0.0 1011109
11:00+31e33553 0.0 1013837
14:00+35ese22426 0.0 10101947
17:00+33sw135172 0.1 10071358
20:00+26wsw238186 2.8 1009107
6 march, sat
sat623:00+25nne1183100 1.1 101251
02:00+25e018698 1.3 101142
05:00+25n0187100 0.0 100940
08:00+25ese118680 0.1 101269
11:00+31ne116138 0.8 1013845
14:00+31wnw446260 3.0 1010960
17:00+29wnw4569100 3.0 1008549
20:00+25ene2392100 6.9 1010109
7 march, sun
sun723:00+25n1387100 0.6 1012110
02:00+24wnw1186100 0.6 101132
05:00+24se008946 0.0 100933
08:00+24e128828 0.0 101178
11:00+31e216152 0.0 1012927
14:00+33sw215354 0.1 10091440
17:00+29wsw3475100 7.8 1007350
20:00+26sw1284100 9.8 100948
8 march, mon
mon823:00+25sse1287100 0.1 101146
02:00+24se129090 0.1 101149
05:00+24ese229176 0.0 101055
08:00+24ese229074 0.0 1011100
11:00+31e225744 0.0 1013841
14:00+35ese233922 0.0 10102070
17:00+28ssw477271 0.9 1008491
20:00+25sse488685 1.2 1010340